sat.trackr.live / text

‹ back to catalog

HULIANWANG DIGUI-151

NORAD 67527 · 2026-013F

PAYLOAD ACTIVE UNKNOWN

§ Identity

Operator
Country
PRC
Launch date
2026-01-19
Launch site
WSC
Launch vehicle
Mass (kg)
RCS (m²)

External: N2YO · Heavens-Above · Gunter

§ Orbital elements

Epoch: 2026-09-20T12:40:30.351648Z

Period
108.33 min
Inclination
50.0114°
Eccentricity
0.0000724
Mean motion
13.29330167 rev/d
Perigee alt
1,148.7 km
Apogee alt
1,149.8 km
Semi-major
7,527.4 km
B*
4.2206e-5
RAAN
13.7053°
Arg perigee
107.6903°
Mean anomaly
252.4049°
Rev number
3,273

§ Raw data

HULIANWANG DIGUI-1511 67527U 26013F   26263.52812907 -.00000104  00000+0  42206-4 0  99952 67527  50.0114  13.7053 0000724 107.6903 252.4049 13.29330167 32734

JSON: /api/v1/satellites/67527 · /tle

For live sub-satellite position, see the globe view (requires WebGL).

§ Visibility from observer

Set your observer location to see the next 7 days of passes ≥ 10°. The values pass through the URL so the page stays shareable.

No JS? Fill the form by hand. The geolocation button needs JavaScript.